Find Starlink 11262

NORAD ID: 62009 Int'l Des: 2024-213 Owner: SPXS Country: US Constellation: starlink operational
又名: STARLINK-11262 [DTC] celestrak
LEOCIRCULAR

当前视图

正在加载3D地球...

About Starlink 11262

Starlink 11262 (NORAD 62009) is a starlink constellation satellite (v2 mini d2c) launched Nov 18, 2024 by SPXS of US. It operates in LEO, CIRCULAR orbit with a mass of 960.00 kg.

即将过境

Passes for default location (London). Set your location on the main map for personalized predictions.

高度历史

Loading altitude history...

两行轨道根数

1 62009U 24213B 26235.58168891 .00071691 00000-0 59110-3 0 9996
2 62009 53.1571 298.8286 0001228 66.5540 293.5607 15.69725987101129
Epoch: Aug 23, 2026 • Age: 13 hours

当前状态

高度 378.0 km
远地点 / 近地点 N/A
速度 7.68 km/s
星下点 -51.15°S, 162.29°E
发射日期 Nov 18, 2024
运行时间 1.7 years
类型 internet

技术详情

分类 Payload
质量 960.00 kg
干质量 910.00 kg
总质量 960.00 kg
长度 0.30 m
直径 4.10 m
跨度 29.00 m
形状 Box + pan
制造商 SPXS
平台类型 Starlink V2MD
阶段状态 In Orbit
所有者/国家 SPXS/US

Most Searched